Regional Weather Roundup
Issued by NWS

Home | Current Version | Previous Version | Graphics & Text | Print | Product List | Glossary On
Versions: 1 2 3 4 5 6 7 8 9 10 11 12 13 14 15 16 17 18 19 20 21 22 23 24 25 26 27 28 29 30 31 32 33 34 35 36 37 38 39 40 41 42 43 44 45 46 47 48 49 50
000
ASUS43 KLSX 091710
RWRMO

WEATHER SUMMARY FOR MISSOURI
NATIONAL WEATHER SERVICE SPRINGFIELD MO
1100 AM CST FRI DEC 09 2016

NOTE: "FAIR" INDICATES FEW OR NO CLOUDS BELOW 12,000 FEET WITH NO
       SIGNIFICANT WEATHER AND/OR OBSTRUCTIONS TO VISIBILITY.
       CURRENT SKY AND/OR WEATHER CONDITIONS ARE NOT AVAILABLE FOR
       CHILLICOTHE AND FARMINGTON.

MOZ001>031-035>038-043-044-053-054-091800-
...NORTHERN AND WESTERN MISSOURI...

CITY           SKY/WX    TMP DP  RH WIND       PRES   REMARKS
KANSAS CTY INT CLOUDY    20  12  71 SE3       30.65F
KANSAS C DTWN  MOSUNNY   23  10  57 NE3       30.67F
LEE`S SUMMIT   CLOUDY    21  11  65 E3        30.65F
ST JOSEPH      CLOUDY    19  12  74 S5        30.66F WCI  12
CHILLICOTHE      N/A     21  12  68 VRB3      30.68S
KIRKSVILLE     SUNNY     20  12  71 NW6       30.63F WCI  12

$$
MOZ066>068-077>081-088>096-101>105-091800-
...SOUTHWEST MISSOURI...

CITY           SKY/WX    TMP DP  RH WIND       PRES   REMARKS
SPRINGFIELD    SUNNY     26  11  52 NE3       30.63F
JOPLIN         MOSUNNY   25  13  60 E6        30.67S WCI  18
BRANSON        MOSUNNY   25  10  54 CALM      30.65S

$$
MOZ032>034-039>042-045>050-055>058-069>072-091800-
...CENTRAL MISSOURI...

CITY           SKY/WX    TMP DP  RH WIND       PRES   REMARKS
COLUMBIA       SUNNY     23  11  60 NW8       30.65S WCI  14
JEFFERSON CITY SUNNY     22  12  65 SW6       30.69R WCI  14
ROLLA          SUNNY     23  13  65 VRB5      30.61S WCI  17
SEDALIA        CLOUDY    21  13  71 CALM      30.67F
WHITEMAN AFB   PTSUNNY   20  13  76 CALM      30.67S
WARRENSBURG    CLOUDY    19  12  73 CALM      30.67F
OSAGE BEACH    CLOUDY    29  16  58 VRB3      30.66F

$$
MOZ051-052-059>065-091800-
...EAST CENTRAL MISSOURI...

CITY           SKY/WX    TMP DP  RH WIND       PRES   REMARKS
ST LOUIS INTL  MOSUNNY   27  12  53 N9        30.64S WCI  18
SPIRIT OF STL  MOSUNNY   26  13  57 W7        30.64F WCI  18
ST CHARLES     MOSUNNY   25  13  60 NW7       30.64F WCI  17

$$
MOZ072>076-082>087-097>100-106>115-091800-
...SOUTH CENTRAL AND SOUTHEAST MISSOURI...

CITY           SKY/WX    TMP DP  RH WIND       PRES   REMARKS
CAPE GIRARDEAU SUNNY     27  15  61 VRB3      30.66F
FARMINGTON     SUNNY     25  12  58 CALM      30.62F
POPLAR BLUFF   SUNNY     29  14  53 CALM      30.68F
WEST PLAINS    SUNNY     26  11  52 CALM      30.64F

$$



USA.gov is the U.S. government's official web portal to all federal, state and local government web resources and services.